Daviess Cnty AP, Washington,, IN

12:29 AM EST on November 19, 2019 (GMT -0500)
Daviess County

Weather History for KDCY - July, 2019

Change the Weather History Date:

Thursday, July 25, 2019

  Actual Average (KLWV) Record (KLWV)
Temperature  
Mean Temperature 68 °F -  
Max Temperature 81 °F 85 °F 105 °F (2012)
Min Temperature 55 °F 65 °F 56 °F (2014)
Cooling Degree Days 3    
Growing Degree Days 18 (Base 50)    
Moisture  
Dew Point 59 °F    
Average Humidity 82    
Maximum Humidity 100    
Minimum Humidity 39    
Precipitation  
Precipitation 0.00 in - - ()
Sea Level Pressure  
Sea Level Pressure 30.18 in    
Wind  
Wind Speed 1 mph (SE)    
Max Wind Speed 7 mph    
Max Gust Speed -    
Visibility 10 miles    
Events      
Averages and records for this station are not official NWS values.
T = Trace of Precipitation, MM = Missing Value Source: NWS Daily Summary

Daily Weather History Graph

Daily Weather History Graph

Search for Another Location

Airport or City:

Astronomy

Jul. 25, 2019 Rise Set
Actual Time 6:43 AM EDT 9:05 PM EDT
Civil Twilight 6:13 AM EDT 9:35 PM EDT
Nautical Twilight 5:36 AM EDT 10:13 PM EDT
Astronomical Twilight 4:55 AM EDT 10:54 PM EDT
Moon 1:25 AM EDT (7/25) 2:48 PM EDT (7/25)
Length of Visible Light 15h 22m
Length of Day
14h 22m
Last Quarter, 44% of the Moon is Illuminated
Jul 25
Last Quarter
Jul 31
New
Aug 7
First Quarter
Aug 15
Full
Aug 23
Last Quarter

Hourly Weather History & Observations

Time (EDT) Temp. Heat Index Dew Point Humidity Pressure Visibility Wind Dir Wind Speed Gust Speed Precip Events Conditions
12:15 AM 62.1 °F - 61.9 °F 99% 30.14 in 10.0 mi Calm Calm - N/A   Clear
12:35 AM 62.6 °F - 62.2 °F 99% 30.14 in 10.0 mi Calm Calm - N/A   Clear
12:55 AM 61.5 °F - 61.2 °F 99% 30.14 in 10.0 mi Calm Calm - N/A   Clear
1:15 AM 60.6 °F - 60.4 °F 99% 30.14 in 10.0 mi Calm Calm - N/A   Clear
1:35 AM 60.4 °F - 60.1 °F 99% 30.14 in 10.0 mi Calm Calm - N/A   Clear
1:55 AM 60.4 °F - 60.3 °F 99% 30.14 in 10.0 mi Calm Calm - N/A   Clear
2:15 AM 60.6 °F - 60.4 °F 99% 30.14 in 10.0 mi Calm Calm - N/A   Clear
2:35 AM 59.7 °F - 59.5 °F 99% 30.14 in 10.0 mi Calm Calm - N/A   Clear
2:55 AM 59.0 °F - 58.6 °F 99% 30.14 in 10.0 mi Calm Calm - N/A   Clear
3:15 AM 58.1 °F - 58.1 °F 100% 30.14 in 10.0 mi Calm Calm - N/A   Clear
3:35 AM 58.1 °F - 57.7 °F 99% 30.14 in 10.0 mi Calm Calm - N/A   Clear
3:55 AM 58.6 °F - 58.3 °F 99% 30.14 in 10.0 mi Calm Calm - N/A   Clear
4:15 AM 58.5 °F - 58.1 °F 99% 30.14 in 10.0 mi Calm Calm - N/A   Clear
4:35 AM 58.1 °F - 57.7 °F 99% 30.15 in 10.0 mi Calm Calm - N/A   Clear
4:55 AM 57.9 °F - 57.6 °F 99% 30.15 in 7.0 mi Calm Calm - N/A   Clear
5:15 AM 57.2 °F - 56.7 °F 98% 30.15 in 10.0 mi Calm Calm - N/A   Clear
5:35 AM 56.5 °F - 56.1 °F 99% 30.15 in 10.0 mi Calm Calm - N/A   Clear
5:55 AM 55.9 °F - 55.8 °F 99% 30.16 in 1.2 mi Calm Calm - N/A   Mist
6:15 AM 56.3 °F - 55.9 °F 99% 30.16 in 0.8 mi Calm Calm - N/A   Mist
6:35 AM 55.9 °F - 55.8 °F 99% 30.16 in 7.0 mi Calm Calm - N/A   Clear
6:55 AM 55.6 °F - 55.4 °F 99% 30.17 in 7.0 mi Calm Calm - N/A   Clear
7:15 AM 56.3 °F - 55.9 °F 99% 30.19 in 10.0 mi Calm Calm - N/A   Scattered Clouds
7:35 AM 57.4 °F - 57.2 °F 99% 30.19 in 4.0 mi Calm Calm - N/A   Scattered Clouds
7:55 AM 58.8 °F - 58.6 °F 99% 30.20 in 7.0 mi Calm Calm - N/A   Clear
8:15 AM 61.2 °F - 60.8 °F 99% 30.20 in 10.0 mi Calm Calm - N/A   Clear
8:35 AM 63.1 °F - 61.9 °F 96% 30.21 in 10.0 mi Calm Calm - N/A   Clear
8:55 AM 64.6 °F - 62.6 °F 93% 30.21 in 10.0 mi Calm Calm - N/A   Clear
9:15 AM 66.6 °F - 63.1 °F 89% 30.22 in 10.0 mi Calm Calm - N/A   Clear
9:55 AM 70.0 °F - 62.1 °F 76% 30.23 in 10.0 mi Calm Calm - N/A   Clear
10:15 AM 71.4 °F - 60.6 °F 69% 30.23 in 10.0 mi Calm Calm - N/A   Clear
10:35 AM 73.2 °F - 60.6 °F 65% 30.23 in 10.0 mi Calm Calm - N/A   Clear
10:55 AM 74.3 °F - 59.5 °F 60% 30.23 in 10.0 mi Calm Calm - N/A   Clear
11:15 AM 75.9 °F - 58.3 °F 54% 30.22 in 10.0 mi ESE 4.6 mph - N/A   Clear
11:35 AM 77.2 °F - 58.1 °F 52% 30.22 in 10.0 mi SSE 3.5 mph - N/A   Clear
11:55 AM 77.5 °F - 56.1 °F 47% 30.22 in 10.0 mi South 3.5 mph - N/A   Clear
12:15 PM 77.5 °F - 55.2 °F 46% 30.22 in 10.0 mi ESE 3.5 mph - N/A   Scattered Clouds
12:35 PM 78.8 °F - 53.8 °F 42% 30.22 in 10.0 mi Calm Calm - N/A   Scattered Clouds
12:55 PM - - - N/A% 30.21 in 10.0 mi Calm Calm - N/A   Scattered Clouds
1:15 PM 78.8 °F - 54.1 °F 42% 30.20 in 10.0 mi ESE 6.9 mph - N/A   Scattered Clouds
1:35 PM 79.0 °F - 54.5 °F 43% 30.20 in 10.0 mi SE 3.5 mph - N/A   Clear
1:55 PM - - - N/A% 30.20 in 10.0 mi SE 5.8 mph - N/A   Clear
2:15 PM 78.8 °F - 54.9 °F 44% 30.20 in 10.0 mi ESE 4.6 mph - N/A   Scattered Clouds
2:35 PM - - - N/A% 30.19 in 10.0 mi ESE 4.6 mph - N/A   Clear
2:55 PM - - - N/A% 30.19 in 10.0 mi East 6.9 mph - N/A   Clear
3:15 PM - - - N/A% 30.19 in 10.0 mi SSE 4.6 mph - N/A   Clear
3:35 PM - - - N/A% 30.19 in 10.0 mi SE 5.8 mph - N/A   Scattered Clouds
3:55 PM - - - N/A% 30.19 in 10.0 mi South 5.8 mph - N/A   Scattered Clouds
4:15 PM 81.7 °F 81.1 °F 54.5 °F 39% 30.17 in 10.0 mi South 5.8 mph - N/A   Clear
4:35 PM - - - N/A% 30.17 in 10.0 mi Calm Calm - N/A   Clear
4:55 PM - - - N/A% 30.17 in 10.0 mi SSE 4.6 mph - N/A   Clear
5:15 PM - - - N/A% 30.17 in 10.0 mi SE 3.5 mph - N/A   Clear
5:35 PM - - - N/A% 30.17 in 10.0 mi SW 3.5 mph - N/A   Clear
5:55 PM - - - N/A% 30.17 in 10.0 mi Calm Calm - N/A   Clear
6:15 PM - - - N/A% 30.16 in 10.0 mi SW 3.5 mph - N/A   Clear
6:35 PM 81.5 °F 81.1 °F 55.9 °F 41% 30.16 in 10.0 mi Calm Calm - N/A   Clear
6:55 PM 81.1 °F 80.9 °F 55.4 °F 41% 30.16 in 10.0 mi Calm Calm - N/A   Clear
7:15 PM - - - N/A% 30.17 in 10.0 mi Calm Calm - N/A   Clear
7:35 PM - - - N/A% 30.17 in 10.0 mi Calm Calm - N/A   Clear
7:55 PM 79.9 °F - 57.7 °F 47% 30.17 in 10.0 mi Calm Calm - N/A   Clear
8:15 PM 79.0 °F - 60.3 °F 53% 30.18 in 10.0 mi Calm Calm - N/A   Clear
8:35 PM 75.0 °F - 65.8 °F 73% 30.17 in 10.0 mi Calm Calm - N/A   Clear
8:55 PM 71.6 °F - 63.0 °F 74% 30.18 in 10.0 mi Calm Calm - N/A   Clear
9:15 PM 69.8 °F - 63.3 °F 80% 30.18 in 10.0 mi Calm Calm - N/A   Clear
9:35 PM 69.6 °F - 63.0 °F 79% 30.18 in 10.0 mi Calm Calm - N/A   Clear
9:55 PM 68.0 °F - 63.0 °F 84% 30.19 in 10.0 mi Calm Calm - N/A   Clear
10:15 PM 67.1 °F - 61.5 °F 82% 30.20 in 10.0 mi Calm Calm - N/A   Clear
10:35 PM 66.2 °F - 63.1 °F 90% 30.20 in 10.0 mi Calm Calm - N/A   Clear
10:55 PM 65.1 °F - 64.8 °F 99% 30.20 in 10.0 mi Calm Calm - N/A   Clear
11:15 PM 64.8 °F - 64.4 °F 99% 30.20 in 10.0 mi Calm Calm - N/A   Clear
11:35 PM 65.1 °F - 64.8 °F 99% 30.20 in 10.0 mi Calm Calm - N/A   Clear
11:55 PM 63.9 °F - 63.5 °F 99% 30.20 in 10.0 mi Calm Calm - N/A   Clear